Voltar ao catálogo

COSMOS 1950

AtivoMilitarLEO
NORAD 19195·PAYLOAD·🇷🇺 Russia

Lançado May 30, 1988 de Plesetsk Cosmodrome

Loading…

Próximas Passagens (próximas 24 horas)

TLE

AtualizadoSource: Space-Track

Época: Sep 14, 2026, 05:38 UTC

1 19195U 88046A   26257.23491236  .00000004  00000-0  15858-3 0  9997
2 19195  73.6036 345.7692 0023023  68.5257 319.8725 12.40924924734658

Acompanhe COSMOS 1950 em tempo real com AllMySat

Download on the App Store